Regional Weather Roundup
Issued by NWS Newport/Morehead, NC

Current Version | Previous Version | Graphics & Text | Print | Product List | Glossary On
Versions: 1 2 3 4 5 6 7 8 9 10 11 12 13 14 15 16 17 18 19 20 21 22 23 24 25 26 27 28 29 30 31 32 33 34 35 36 37 38 39 40 41 42 43 44 45 46 47 48 49 50
000 ASUS42 KMHX 030112 RWRMHX WEATHER ROUNDUP FOR EASTERN NORTH CAROLINA NATIONAL WEATHER SERVICE NEWPORT/MOREHEAD CITY NC 800 PM EST FRI DEC 02 2016 NOTE: "FAIR" INDICATES FEW OR NO CLOUDS BELOW 12,000 FEET WITH NO SIGNIFICANT WEATHER AND/OR OBSTRUCTIONS TO VISIBILITY NCZ015>017-031-032-045>047-102-103-030200- NORTH COAST CITY SKY/WX TMP DP RH WIND PRES REMARKS EDENTON CLEAR 46 37 71 CALM 30.11S ELIZABETH CITY CLEAR 44 34 67 W7 30.10R KITTY HAWK CLEAR 49 41 74 CALM 30.08R MANTEO CLEAR 49 39 69 CALM 30.10S $$ NCZ045>047-081-094-103-104-030200- CENTRAL COAST CITY SKY/WX TMP DP RH WIND PRES REMARKS FRISCO CLEAR 52 36 54 NW10 30.10S $$ NCZ095-097-098-100-101-030200- SOUTHERN COAST CITY SKY/WX TMP DP RH WIND PRES REMARKS BEAUFORT CLEAR 50 38 63 W8 30.13R CEDAR ISLAND NOT AVBL JACKSONVILLE PTCLDY 46 37 71 W6 30.14R PINEY ISLAND CLEAR N/A N/A N/A W7 30.11S WILMINGTON PTCLDY 42 39 89 SW3 30.16R $$ NCZ011>013-027>030-043-044-078>080-089-090>093-098-030200- COASTAL PLAIN CITY SKY/WX TMP DP RH WIND PRES REMARKS AHOSKIE CLEAR 37 33 86 CALM 30.11S CLINTON CLEAR 42 36 79 CALM 30.15R ELIZABETHTOWN CLOUDY 44 38 80 CALM 30.16R GOLDSBORO CLEAR 43 35 73 CALM 30.12R GREENVILLE CLEAR 41 36 81 CALM 30.13S HAVELOCK CLEAR 47 36 65 W7 30.13R KENANSVILLE CLEAR 37 34 87 CALM 30.14R KINSTON CLEAR 37 36 93 CALM 30.14R NEW BERN PTCLDY 41 36 82 CALM 30.14R RICHLANDS CLEAR 38 36 92 CALM 30.15R ROCKY MOUNT CLEAR 37 35 92 CALM 30.13R WASHINGTON CLEAR 42 36 80 CALM 30.13R WHITEVILLE CLOUDY 46 38 74 CALM 30.16S $$ AMZ130-135-150-152-154-156-158-170-250-252-270-ANZ085-086-088-633-658-670-030200- MARINE OBSERVATIONS STATION/POSITION TIME TEMP WIND PRES WAVE SWELL AIR SEA DIR/SP/G HT/PER HT/PER (UTC) (F) (DEG/KT/KT) (MB) (FT/S) (FT/S) CHESAPEAKE LIGHT NOT AVBL 64 E VA BEACH 0050 53 60 270/ 12/ 14 1017.8 3/ 5 2/ 7 DUCK 0042 52 57 270/ 8/ 11 1018.4 2 E DUCK NOT AVBL OREGON INLET 0042 52 59 250/ 7/ 9 1018.9 13E OREGON INLT 0030 61 N/A 3/ 6 3/ 6 HATTERAS CG 0042 54 62 300/ 12/ 14 1018.9 DIAMOND BUOY 0050 57 75 310/ 17/ 23 1018.8 4/ 7 2/ 7 CAPE LOOKOUT 0100 55 300/ 15/ 18 1019.7 BEAUFORT LAB 0042 52 58 300/ 8/ 10 1018.9 30 SE NEW RVR IN 0008 59 71 310/ 16/ 23 1019.9 30 SE NEW RVR IN NOT AVBL 27 SE WRIGHTSVLE 0008 58 69 300/ 14/ 19 1019.9 5 SE WRIGHTSVLE 0008 54 64 310/ 14/ 17 1019.9 225 S CAPE HAT 0050 69 74 340/ 14/ 17 1018.1 4/ 6 3/ 6 41 SE CHARLESTON 0050 60 75 340/ 12/ 16 1021.2 3/ 5 2/ 9 $$

USA.gov is the U.S. government's official web portal to all federal, state and local government web resources and services.